[[{"header":{"parameterUnit":"m.s-1","parameterCategory":1,"la1":30.2991,"la2":30.254,"lo1":-89.0895,"lo2":-89.0444,"dy":0.0017,"dx":0.0017,"nx":28,"ny":28,"refTime":"2026-02-08T09:00:00:Z","depth":0,"parameterNumber":2,"parameterNumberName":"U-component_of_WINDS"},"data":[0,0,0,0,0,0,0,0,0,0,0,0,0,0,0,0,0,0,0,0,0,0,0,0,0,0,0,0,0,0,0,0,0,0,0,0,0,0,0,0,0,0,0,0,0,0,0,0,0,0,0,0,0,0,0,0,0,0,0.9189,0.919,0,0.925,0.925,0.9251,0.9228,0.9227,0.9225,0.9224,0.9288,0.9291,0.9294,0,0,0,0,0,0,0,0,0,0,0,0,0,0.9058,0.906,0.9189,0.919,0.9191,0.9249,0.925,0.9251,0.9228,0.9227,0.9225,0.9223,0.9287,0.9291,0.9295,0,0,0,0,0,0,0,0,0,0,0,0,0,0.9116,0.9061,0.9189,0.9186,0.9187,0.9249,0.925,0.9251,0.9229,0.9227,0.9225,0.9223,0.9286,0.9291,0.9295,0.9365,0,0,0.9309,0.9311,0,0,0,0,0,0,0,0,0.9113,0.9121,0.9186,0.9187,0.9187,0.9229,0.9228,0.9289,0.9229,0.9213,0.9224,0.9222,0.9271,0.9276,0.9292,0.9368,0.937,0.9309,0.9312,0.9314,0.9315,0,0,0,0,0,0,0,0.9109,0.9118,0.9213,0.9187,0.9188,0.9183,0.9189,0.9239,0.9253,0.9214,0.9213,0.922,0.927,0.9288,0.9294,0.9371,0.9309,0.9313,0.9316,0.9318,0.9509,0.9511,0,0,0,0,0,0,0.9104,0.9115,0.9211,0.9215,0.9144,0.9187,0.9194,0.9218,0.9252,0.9255,0.9222,0.9219,0.9281,0.9288,0.9296,0.938,0.9314,0.9318,0.9321,0.9507,0.951,0.9512,0,0,0,0,0,0,0.9101,0.9113,0.9209,0.9165,0.9176,0.9192,0.9219,0.922,0.9237,0.9258,0.926,0.9237,0.928,0.9289,0.9348,0.9382,0.932,0.9324,0.9504,0.9508,0.9511,0.9549,0,0,0,0,0,0,0.9098,0.9112,0.9137,0.9165,0.9179,0.9259,0.9221,0.9223,0.9245,0.9242,0.9273,0.9276,0.9279,0.9341,0.9352,0.9387,0.9328,0.9501,0.9506,0.951,0.9545,0.9554,0.9561,0,0,0,0,0,0.9093,0.9146,0.9139,0.9151,0.9211,0.9261,0.9269,0.927,0.9248,0.9274,0.9288,0.9275,0.9377,0.9348,0.936,0.9396,0.9499,0.9504,0.951,0.9541,0.9552,0.9561,0,0,0,0,0,0,0.9122,0.9149,0.9142,0.9205,0.9231,0.9257,0.929,0.9281,0.9314,0.931,0.9312,0.9319,0.938,0.9394,0.9361,0.9467,0.9435,0.9443,0.9455,0.9465,0.9473,0.9468,0.9332,0,0,0,0,0,0.9136,0.9173,0.9195,0.9249,0.9262,0.9274,0.9296,0.9295,0.9322,0.9333,0.9351,0.9378,0.9417,0.9442,0.9478,0.9548,0.9555,0.9579,0.9587,0.9594,0.96,0.964,0.9651,0.953,0.953,0.953,0,0,0.9164,0.9184,0.9207,0.9255,0.9275,0.9315,0.9283,0.9326,0.9356,0.934,0.9396,0.941,0.9441,0.9506,0.9535,0.952,0.9636,0.9601,0.9606,0.9609,0.9646,0.9658,0.9668,0.9534,0.9533,0.9532,0,0,0.9236,0.9255,0.9302,0.9323,0.9353,0.9361,0.9373,0.9401,0.9409,0.9466,0.9455,0.9492,0.9557,0.958,0.96,0.9685,0.9674,0.9697,0.9738,0.9777,0.9786,0.9795,0.9825,0.9836,0.9703,0.9704,0.9704,0,0.9268,0.9326,0.9327,0.9372,0.9394,0.9381,0.943,0.9451,0.9492,0.9508,0.949,0.9574,0.9594,0.9664,0.9685,0.9702,0.9716,0.9692,0.9784,0.9793,0.9801,0.983,0.9842,0.9706,0.9706,0.9705,0.9705,0,0.9364,0.9405,0.9439,0.9479,0.9506,0.9552,0.9562,0.9589,0.9587,0.9597,0.9656,0.968,0.9722,0.9739,0.9737,0.981,0.98,0.9783,0.9751,0.9815,0.9842,0.9854,0.971,0.9709,0.9708,0.9707,0,0,0.9453,0.9495,0.9507,0.9526,0.956,0.9592,0.964,0.968,0.9703,0.9733,0.9773,0.983,0.9816,0.9839,0.9841,0.9875,0.9941,0.9854,0.9855,0.987,1.0024,1.0035,1.0048,0.9935,0.9937,0.9939,1.0021,0,0.9527,0.9608,0.9612,0.9687,0.9725,0.9716,0.9757,0.9783,0.9795,0.9831,0.9844,0.9885,0.9863,0.9877,0.991,0.9926,0.9972,0.992,0.9973,0.9975,0.9964,1.0062,1.0074,1.015,1.0032,1.0033,1.0035,0,0.9624,0.9657,0.9735,0.9765,0.9782,0.9818,0.9857,0.9891,0.9922,0.9928,0.9955,0.9953,1.0003,0.997,1.0039,1.0004,1.0027,1.0038,1.0041,1.0045,1.0008,1.0069,1.0174,1.0185,1.0052,1.005,1.0049,0,0.9681,0.9745,0.98,0.9817,0.9854,0.988,0.9897,0.9925,0.995,0.9985,1.0001,1.0041,1.0063,1.0095,1.0104,1.0079,1.0174,1.0142,1.0182,1.0182,1.0201,1.0199,1.0311,1.0217,1.0216,1.0216,1.0216,0,0.9763,0.9811,0.9827,0.986,0.9915,0.9921,0.9975,0.999,1.0016,1.0054,1.005,1.0085,1.0096,1.0134,1.0142,1.0199,1.0209,1.0216,1.0218,1.0216,1.0215,1.023,1.0225,1.0219,1.0219,1.0218,1.0217,0,0.9835,0.9847,0.9907,0.9938,0.9947,0.9986,1.0013,1.0046,1.0059,1.0107,1.0119,1.0138,1.0183,1.0196,1.025,1.0256,1.0323,1.032,1.0312,1.0312,1.0351,1.0347,1.0475,1.0493,1.0388,1.0389,1.039,0,0.9885,0.9922,0.9958,0.9983,1.0001,1.0041,1.0066,1.0075,1.0102,1.0141,1.0171,1.0215,1.0251,1.0324,1.0344,1.0386,1.0384,1.0426,1.039,1.0388,1.0384,1.0382,1.0386,1.0432,1.0433,1.0434,1.0435,0,0.9974,0.9979,1.0016,1.0056,1.0087,1.0118,1.0149,1.017,1.0183,1.0214,1.026,1.0288,1.0344,1.0389,1.0433,1.0451,1.0446,1.0447,1.0458,1.0456,1.045,1.0454,1.033,1.0443,1.0442,1.0442,1.0441,1.0441,1.0037,1.007,1.01,1.0142,1.0166,1.0196,1.0229,1.0246,1.0285,1.033,1.0334,1.0384,1.0417,1.0474,1.0496,1.0536,1.0524,1.054,1.0545,1.0548,1.0552,1.0445,1.0544,1.0544,1.0544,1.0544,1.0544,0,1.0125,1.0145,1.0184,1.0227,1.026,1.0253,1.0287,1.0316,1.036,1.0391,1.0427,1.0481,1.0525,1.055,1.0594,1.0622,1.0621,1.0634,1.0631,1.0636,1.056,1.0545,1.0634,1.0634,1.0634,1.0634,1.0634,1.0634,1.0175,1.023,1.024,1.0308,1.0328,1.0377,1.0397,1.0425,1.045,1.051,1.0547,1.0563,1.0592,1.0639,1.068,1.0686,1.0703,1.0717,1.0722,1.065,1.0641,1.0632,1.0618,1.0721,1.0721,1.0794,1.0795,1.0795]},{"header":{"parameterUnit":"m.s-1","parameterCategory":1,"la1":30.2991,"la2":30.254,"lo1":-89.0895,"lo2":-89.0444,"dy":0.0017,"dx":0.0017,"nx":28,"ny":28,"refTime":"2026-02-08T09:00:00:Z","depth":0,"parameterNumber":3,"parameterNumberName":"V-component_of_WINDS"},"data":[0,0,0,0,0,0,0,0,0,0,0,0,0,0,0,0,0,0,0,0,0,0,0,0,0,0,0,0,0,0,0,0,0,0,0,0,0,0,0,0,0,0,0,0,0,0,0,0,0,0,0,0,0,0,0,0,0,0,1.092,1.092,0,1.0906,1.0906,1.0906,1.0902,1.0903,1.0903,1.0903,1.0885,1.0885,1.0884,0,0,0,0,0,0,0,0,0,0,0,0,0,1.0942,1.0941,1.092,1.092,1.092,1.0906,1.0906,1.0906,1.0902,1.0903,1.0903,1.0903,1.0885,1.0885,1.0884,0,0,0,0,0,0,0,0,0,0,0,0,0,1.093,1.0941,1.092,1.0917,1.0916,1.0906,1.0906,1.0906,1.0902,1.0903,1.0903,1.0903,1.0886,1.0885,1.0884,1.0876,0,0,1.0881,1.0881,0,0,0,0,0,0,0,0,1.0931,1.093,1.0917,1.0917,1.0916,1.0906,1.0907,1.0895,1.0902,1.0907,1.0903,1.0903,1.0892,1.0891,1.0887,1.0875,1.0874,1.0881,1.0881,1.0881,1.088,0,0,0,0,0,0,0,1.0932,1.093,1.0914,1.0917,1.0916,1.0915,1.0913,1.0905,1.0899,1.0907,1.0907,1.0905,1.0892,1.0888,1.0887,1.0874,1.0881,1.0881,1.088,1.088,1.0854,1.0854,0,0,0,0,0,0,1.0934,1.0931,1.0915,1.0914,1.0924,1.0914,1.0913,1.0909,1.0899,1.0898,1.0905,1.0905,1.089,1.0888,1.0886,1.0876,1.0881,1.088,1.0879,1.0854,1.0854,1.0854,0,0,0,0,0,0,1.0934,1.0932,1.0915,1.0922,1.092,1.0914,1.091,1.0909,1.0906,1.0898,1.0896,1.0903,1.089,1.0888,1.0879,1.0875,1.0879,1.0879,1.0854,1.0854,1.0854,1.0855,0,0,0,0,0,0,1.0935,1.0932,1.093,1.0922,1.092,1.0909,1.091,1.0908,1.0904,1.0904,1.0895,1.0894,1.089,1.088,1.0878,1.0874,1.0878,1.0854,1.0854,1.0854,1.0855,1.0855,1.0855,0,0,0,0,0,1.0936,1.093,1.093,1.0928,1.0916,1.0908,1.0907,1.0903,1.0904,1.0901,1.0896,1.0894,1.0876,1.0879,1.0877,1.0873,1.0855,1.0854,1.0854,1.0856,1.0855,1.0855,0,0,0,0,0,0,1.0936,1.0929,1.0928,1.0921,1.0915,1.0908,1.0904,1.0903,1.0896,1.0896,1.0891,1.0889,1.088,1.0875,1.0879,1.0864,1.0865,1.0864,1.0868,1.0867,1.0867,1.0868,1.0877,0,0,0,0,0,1.0935,1.093,1.0924,1.0918,1.0915,1.091,1.0906,1.0904,1.0898,1.0895,1.089,1.0883,1.0876,1.0871,1.0864,1.0855,1.0853,1.0851,1.0851,1.0851,1.085,1.0845,1.0844,1.0852,1.0852,1.0852,0,0,1.0934,1.0929,1.0926,1.0918,1.0913,1.0908,1.0908,1.0902,1.0897,1.0894,1.0886,1.0881,1.0873,1.0864,1.086,1.086,1.0847,1.085,1.085,1.0849,1.0844,1.0843,1.0843,1.0852,1.0852,1.0852,0,0,1.0928,1.0924,1.0918,1.0914,1.0908,1.0905,1.0904,1.0897,1.0894,1.0886,1.0883,1.0877,1.0865,1.086,1.0855,1.0848,1.0846,1.0846,1.0844,1.0839,1.0838,1.0838,1.0835,1.0834,1.0845,1.0845,1.0845,0,1.0926,1.0918,1.0915,1.091,1.0906,1.0904,1.0898,1.0894,1.0885,1.0882,1.0883,1.0868,1.0863,1.0852,1.0851,1.0847,1.0845,1.0847,1.0839,1.0838,1.0837,1.0835,1.0834,1.0845,1.0845,1.0845,1.0845,0,1.0916,1.0911,1.0907,1.09,1.0896,1.089,1.0886,1.0882,1.088,1.0876,1.0868,1.0861,1.0853,1.0851,1.0848,1.084,1.084,1.084,1.0841,1.0837,1.0834,1.0833,1.0845,1.0845,1.0845,1.0845,0,0,1.091,1.0902,1.0901,1.0898,1.0891,1.0886,1.088,1.0873,1.087,1.0864,1.0858,1.0849,1.0849,1.0844,1.0841,1.0836,1.0831,1.0836,1.0836,1.0836,1.0822,1.0822,1.0821,1.083,1.083,1.0829,1.0822,0,1.0903,1.0893,1.0891,1.0882,1.0876,1.0875,1.0869,1.0864,1.0861,1.0855,1.0851,1.0844,1.0845,1.0842,1.0838,1.0833,1.0828,1.0833,1.0824,1.0824,1.0826,1.0819,1.082,1.0813,1.0821,1.0821,1.0821,0,1.0893,1.0889,1.088,1.0874,1.0872,1.0867,1.0861,1.0856,1.085,1.0848,1.0843,1.084,1.0833,1.0835,1.0825,1.0828,1.0824,1.0822,1.0821,1.082,1.0822,1.0818,1.0811,1.081,1.0819,1.0819,1.0819,0,1.0889,1.0881,1.0874,1.0872,1.0865,1.0862,1.0859,1.0853,1.0849,1.0843,1.0841,1.0834,1.083,1.0824,1.082,1.0822,1.081,1.0811,1.0808,1.0808,1.0805,1.0805,1.0797,1.0803,1.0803,1.0803,1.0803,0,1.0882,1.0876,1.0872,1.0868,1.0862,1.0859,1.0853,1.0849,1.0845,1.0839,1.0837,1.0832,1.0827,1.0821,1.0818,1.081,1.0808,1.0805,1.0805,1.0806,1.0806,1.0803,1.0803,1.0803,1.0803,1.0803,1.0803,0,1.0876,1.0873,1.0866,1.0861,1.0859,1.0855,1.085,1.0846,1.0843,1.0836,1.0834,1.0829,1.0822,1.0818,1.0808,1.0806,1.0797,1.0797,1.08,1.0799,1.0796,1.0796,1.0785,1.0783,1.0791,1.079,1.079,0,1.0871,1.0867,1.0862,1.0859,1.0856,1.0851,1.0847,1.0844,1.084,1.0834,1.083,1.0824,1.0818,1.0807,1.0802,1.0795,1.0793,1.079,1.0792,1.0794,1.0793,1.0793,1.0793,1.079,1.0789,1.0789,1.0789,0,1.0863,1.0862,1.0858,1.0853,1.0849,1.0844,1.084,1.0837,1.0833,1.0829,1.0823,1.0818,1.081,1.0803,1.0796,1.0791,1.079,1.0789,1.0788,1.0789,1.0791,1.0789,1.0799,1.0789,1.0789,1.0789,1.0789,1.0789,1.0858,1.0854,1.085,1.0845,1.0842,1.0838,1.0834,1.083,1.0825,1.0819,1.0817,1.081,1.0804,1.0795,1.0791,1.0785,1.0785,1.0783,1.0782,1.0782,1.0782,1.0792,1.0783,1.0783,1.0783,1.0783,1.0783,0,1.0849,1.0847,1.0842,1.0837,1.0833,1.0833,1.0828,1.0824,1.0819,1.0814,1.0809,1.0802,1.0795,1.079,1.0783,1.0779,1.0778,1.0777,1.0778,1.0777,1.0782,1.0784,1.0778,1.0778,1.0778,1.0778,1.0778,1.0778,1.0845,1.0839,1.0837,1.0829,1.0827,1.0821,1.0818,1.0814,1.0811,1.0803,1.0798,1.0795,1.079,1.0783,1.0777,1.0775,1.0773,1.0772,1.077,1.0776,1.0776,1.0777,1.0778,1.0772,1.0772,1.0765,1.0765,1.0765]}]]